Time,TemperatureF,DewpointF,PressureIn,WindDirection,WindDirectionDegrees,WindSpeedMPH,WindSpeedGustMPH,Humidity,HourlyPrecipIn,Conditions,Clouds,dailyrainin,SoftwareType,DateUTC
2013-07-13 00:01:00,80.0,57.0,29.72,NE,49,1.0,8.0,46,0.00,,,0.00,,2013-07-13 06:01:00,
2013-07-13 00:11:00,80.0,59.0,29.73,NNE,30,0.0,4.0,48,0.00,,,0.00,,2013-07-13 06:11:00,
2013-07-13 00:22:00,79.0,58.0,29.73,ESE,113,0.0,2.0,48,0.00,,,0.00,,2013-07-13 06:22:00,
2013-07-13 00:32:00,79.0,58.0,29.73,ESE,113,0.0,2.0,48,0.00,,,0.00,,2013-07-13 06:32:00,
2013-07-13 00:43:00,78.0,58.0,29.73,WNW,282,0.0,1.0,50,0.00,,,0.00,,2013-07-13 06:43:00,
2013-07-13 00:52:00,78.0,57.0,29.73,NE,54,1.0,3.0,49,0.00,,,0.00,,2013-07-13 06:52:00,
2013-07-13 01:02:00,78.0,57.0,29.73,NE,54,1.0,3.0,49,0.00,,,0.00,,2013-07-13 07:02:00,
2013-07-13 01:11:00,78.0,57.0,29.74,NNE,29,0.0,3.0,49,0.00,,,0.00,,2013-07-13 07:11:00,
2013-07-13 01:22:00,77.0,57.0,29.74,NW,323,0.0,0.0,51,0.00,,,0.00,,2013-07-13 07:22:00,
2013-07-13 01:33:00,77.0,57.0,29.74,NW,323,0.0,0.0,51,0.00,,,0.00,,2013-07-13 07:33:00,
2013-07-13 01:44:00,76.0,57.0,29.73,NW,323,0.0,0.0,51,0.00,,,0.00,,2013-07-13 07:44:00,
2013-07-13 01:53:00,75.0,57.0,29.73,NW,323,0.0,1.0,54,0.00,,,0.00,,2013-07-13 07:53:00,
2013-07-13 02:01:00,75.0,57.0,29.73,NW,323,0.0,1.0,54,0.00,,,0.00,,2013-07-13 08:01:00,
2013-07-13 02:11:00,74.0,57.0,29.73,NW,323,0.0,0.0,55,0.00,,,0.00,,2013-07-13 08:11:00,
2013-07-13 02:22:00,73.0,57.0,29.73,NW,323,0.0,0.0,58,0.00,,,0.00,,2013-07-13 08:22:00,
2013-07-13 02:33:00,73.0,57.0,29.73,NW,323,0.0,0.0,58,0.00,,,0.00,,2013-07-13 08:33:00,
2013-07-13 02:43:00,72.0,57.0,29.73,NW,323,0.0,0.0,60,0.00,,,0.00,,2013-07-13 08:43:00,
2013-07-13 02:52:00,72.0,58.0,29.73,NW,326,0.0,0.0,61,0.00,,,0.00,,2013-07-13 08:52:00,
2013-07-13 03:02:00,72.0,58.0,29.73,NW,326,0.0,0.0,61,0.00,,,0.00,,2013-07-13 09:02:00,
2013-07-13 03:11:00,73.0,58.0,29.73,North,11,0.0,1.0,60,0.00,,,0.00,,2013-07-13 09:11:00,
2013-07-13 03:22:00,73.0,58.0,29.73,North,352,0.0,1.0,60,0.00,,,0.00,,2013-07-13 09:22:00,
2013-07-13 03:33:00,73.0,58.0,29.73,North,352,0.0,1.0,60,0.00,,,0.00,,2013-07-13 09:33:00,
2013-07-13 03:43:00,73.0,60.0,29.72,NNE,13,0.0,1.0,63,0.00,,,0.00,,2013-07-13 09:43:00,
2013-07-13 03:53:00,73.0,60.0,29.72,NNE,30,0.0,3.0,64,0.00,,,0.00,,2013-07-13 09:53:00,
2013-07-13 04:01:00,73.0,60.0,29.72,NNE,30,0.0,3.0,64,0.00,,,0.00,,2013-07-13 10:01:00,
2013-07-13 04:11:00,73.0,60.0,29.71,North,351,0.0,3.0,63,0.00,,,0.00,,2013-07-13 10:11:00,
2013-07-13 04:22:00,72.0,59.0,29.72,NE,36,0.0,0.0,64,0.00,,,0.00,,2013-07-13 10:22:00,
2013-07-13 04:32:00,72.0,59.0,29.72,NE,36,0.0,0.0,64,0.00,,,0.00,,2013-07-13 10:32:00,
2013-07-13 04:43:00,71.0,59.0,29.71,NNE,28,0.0,1.0,67,0.00,,,0.00,,2013-07-13 10:43:00,
2013-07-13 05:02:00,70.0,59.0,29.72,NNE,29,0.0,0.0,69,0.00,,,0.00,,2013-07-13 11:02:00,
2013-07-13 05:11:00,69.0,59.0,29.72,NNE,29,0.0,0.0,71,0.00,,,0.00,,2013-07-13 11:11:00,
2013-07-13 05:22:00,70.0,60.0,29.72,NE,43,0.0,4.0,70,0.00,,,0.00,,2013-07-13 11:22:00,
2013-07-13 05:32:00,70.0,60.0,29.72,NE,43,0.0,4.0,70,0.00,,,0.00,,2013-07-13 11:32:00,
2013-07-13 05:42:00,71.0,59.0,29.73,North,4,0.0,4.0,67,0.00,,,0.00,,2013-07-13 11:42:00,
2013-07-13 05:52:00,71.0,59.0,29.73,NE,46,0.0,1.0,67,0.00,,,0.00,,2013-07-13 11:52:00,
2013-07-13 06:02:00,71.0,59.0,29.73,NE,46,0.0,1.0,67,0.00,,,0.00,,2013-07-13 12:02:00,
2013-07-13 06:12:00,71.0,59.0,29.73,NNW,341,0.0,1.0,67,0.00,,,0.00,,2013-07-13 12:12:00,
2013-07-13 06:22:00,71.0,60.0,29.74,NNE,19,0.0,0.0,68,0.00,,,0.00,,2013-07-13 12:22:00,
2013-07-13 06:32:00,71.0,60.0,29.74,NNE,19,0.0,0.0,68,0.00,,,0.00,,2013-07-13 12:32:00,
2013-07-13 06:43:00,70.0,60.0,29.74,NNE,19,0.0,0.0,70,0.00,,,0.00,,2013-07-13 12:43:00,
2013-07-13 06:52:00,70.0,61.0,29.75,East,97,0.0,1.0,72,0.00,,,0.00,,2013-07-13 12:52:00,
2013-07-13 07:01:00,70.0,61.0,29.75,East,97,0.0,1.0,72,0.00,,,0.00,,2013-07-13 13:01:00,
2013-07-13 07:12:00,71.0,61.0,29.75,East,97,0.0,0.0,71,0.00,,,0.00,,2013-07-13 13:12:00,
2013-07-13 07:22:00,71.0,61.0,29.75,East,97,0.0,0.0,71,0.00,,,0.00,,2013-07-13 13:22:00,
2013-07-13 07:32:00,71.0,61.0,29.75,East,97,0.0,0.0,71,0.00,,,0.00,,2013-07-13 13:32:00,
2013-07-13 07:43:00,71.0,62.0,29.76,East,97,0.0,0.0,73,0.00,,,0.00,,2013-07-13 13:43:00,
2013-07-13 07:53:00,71.0,62.0,29.76,East,98,0.0,1.0,72,0.00,,,0.00,,2013-07-13 13:53:00,
2013-07-13 08:02:00,71.0,62.0,29.76,East,98,0.0,1.0,72,0.00,,,0.00,,2013-07-13 14:02:00,
2013-07-13 08:11:00,72.0,62.0,29.77,SE,134,0.0,1.0,70,0.00,,,0.00,,2013-07-13 14:11:00,
2013-07-13 08:22:00,73.0,63.0,29.77,SE,134,0.0,0.0,70,0.00,,,0.00,,2013-07-13 14:22:00,
2013-07-13 08:32:00,73.0,63.0,29.77,SE,134,0.0,0.0,70,0.00,,,0.00,,2013-07-13 14:32:00,
2013-07-13 08:43:00,74.0,61.0,29.78,SE,134,0.0,1.0,65,0.00,,,0.00,,2013-07-13 14:43:00,
2013-07-13 08:53:00,77.0,61.0,29.78,SSE,165,0.0,1.0,57,0.00,,,0.00,,2013-07-13 14:53:00,
2013-07-13 09:02:00,77.0,61.0,29.78,SSE,165,0.0,1.0,57,0.00,,,0.00,,2013-07-13 15:02:00,
2013-07-13 09:12:00,80.0,61.0,29.78,ESE,115,0.0,1.0,53,0.00,,,0.00,,2013-07-13 15:12:00,
2013-07-13 09:22:00,82.0,62.0,29.78,SW,219,0.0,2.0,51,0.00,,,0.00,,2013-07-13 15:22:00,
2013-07-13 09:33:00,82.0,62.0,29.78,SW,219,0.0,2.0,51,0.00,,,0.00,,2013-07-13 15:33:00,
2013-07-13 09:43:00,83.0,60.0,29.77,SSW,205,0.0,3.0,46,0.00,,,0.00,,2013-07-13 15:43:00,
2013-07-13 09:53:00,85.0,59.0,29.77,SE,128,0.0,3.0,42,0.00,,,0.00,,2013-07-13 15:53:00,
2013-07-13 10:02:00,85.0,59.0,29.77,SE,128,0.0,3.0,42,0.00,,,0.00,,2013-07-13 16:02:00,
2013-07-13 10:11:00,86.0,57.0,29.77,SSE,166,1.0,3.0,37,0.00,,,0.00,,2013-07-13 16:11:00,
2013-07-13 10:22:00,86.0,57.0,29.76,WSW,249,0.0,3.0,38,0.00,,,0.00,,2013-07-13 16:22:00,
2013-07-13 10:32:00,86.0,57.0,29.76,WSW,249,0.0,3.0,38,0.00,,,0.00,,2013-07-13 16:32:00,
2013-07-13 10:43:00,88.0,58.0,29.76,WSW,253,0.0,4.0,37,0.00,,,0.00,,2013-07-13 16:43:00,
2013-07-13 10:53:00,89.0,58.0,29.76,SW,235,1.0,4.0,35,0.00,,,0.00,,2013-07-13 16:53:00,
2013-07-13 11:01:00,89.0,58.0,29.76,SW,235,1.0,4.0,35,0.00,,,0.00,,2013-07-13 17:01:00,
2013-07-13 11:12:00,90.0,60.0,29.76,WSW,257,0.0,1.0,37,0.00,,,0.00,,2013-07-13 17:12:00,
2013-07-13 11:22:00,92.0,58.0,29.75,SE,143,0.0,1.0,32,0.00,,,0.00,,2013-07-13 17:22:00,
2013-07-13 11:33:00,92.0,58.0,29.75,SE,143,0.0,1.0,32,0.00,,,0.00,,2013-07-13 17:33:00,
2013-07-13 11:43:00,91.0,57.0,29.75,ESE,120,1.0,2.0,32,0.00,,,0.00,,2013-07-13 17:43:00,
2013-07-13 11:52:00,93.0,58.0,29.74,WSW,248,0.0,3.0,31,0.00,,,0.00,,2013-07-13 17:52:00,
2013-07-13 12:01:00,93.0,58.0,29.74,WSW,248,0.0,3.0,31,0.00,,,0.00,,2013-07-13 18:01:00,
2013-07-13 12:11:00,94.0,59.0,29.74,West,264,0.0,5.0,31,0.00,,,0.00,,2013-07-13 18:11:00,
2013-07-13 12:21:00,94.0,57.0,29.73,ESE,117,2.0,4.0,29,0.00,,,0.00,,2013-07-13 18:21:00,
2013-07-13 12:32:00,94.0,57.0,29.73,ESE,117,2.0,4.0,29,0.00,,,0.00,,2013-07-13 18:32:00,
2013-07-13 12:43:00,94.0,58.0,29.72,WNW,291,0.0,2.0,30,0.00,,,0.00,,2013-07-13 18:43:00,
2013-07-13 12:53:00,95.0,59.0,29.72,South,190,1.0,3.0,30,0.00,,,0.00,,2013-07-13 18:53:00,
2013-07-13 13:02:00,95.0,59.0,29.72,South,190,1.0,3.0,30,0.00,,,0.00,,2013-07-13 19:02:00,
2013-07-13 13:11:00,96.0,59.0,29.71,SW,231,0.0,4.0,30,0.00,,,0.00,,2013-07-13 19:11:00,
2013-07-13 13:22:00,96.0,59.0,29.70,South,176,3.0,5.0,29,0.00,,,0.00,,2013-07-13 19:22:00,
2013-07-13 13:32:00,96.0,59.0,29.70,South,176,3.0,5.0,29,0.00,,,0.00,,2013-07-13 19:32:00,
2013-07-13 13:44:00,98.0,59.0,29.70,West,281,0.0,3.0,28,0.00,,,0.00,,2013-07-13 19:44:00,
2013-07-13 13:52:00,98.0,58.0,29.69,ESE,104,1.0,5.0,27,0.00,,,0.00,,2013-07-13 19:52:00,
2013-07-13 14:01:00,98.0,58.0,29.69,ESE,104,1.0,5.0,27,0.00,,,0.00,,2013-07-13 20:01:00,
2013-07-13 14:11:00,99.0,56.0,29.68,East,85,2.0,5.0,24,0.00,,,0.00,,2013-07-13 20:11:00,
2013-07-13 14:22:00,98.0,55.0,29.67,ESE,110,2.0,7.0,24,0.00,,,0.00,,2013-07-13 20:22:00,
2013-07-13 14:33:00,98.0,55.0,29.67,ESE,110,2.0,7.0,24,0.00,,,0.00,,2013-07-13 20:33:00,
2013-07-13 14:43:00,99.0,56.0,29.66,SSW,210,0.0,5.0,24,0.00,,,0.00,,2013-07-13 20:43:00,
2013-07-13 14:52:00,100.0,58.0,29.66,SE,146,2.0,7.0,25,0.00,,,0.00,,2013-07-13 20:52:00,
2013-07-13 15:02:00,100.0,58.0,29.66,SE,146,2.0,7.0,25,0.00,,,0.00,,2013-07-13 21:02:00,
2013-07-13 15:12:00,99.0,55.0,29.66,ESE,108,1.0,7.0,23,0.00,,,0.00,,2013-07-13 21:12:00,
2013-07-13 15:22:00,100.0,54.0,29.66,SE,146,2.0,6.0,22,0.00,,,0.00,,2013-07-13 21:22:00,
2013-07-13 15:32:00,100.0,54.0,29.66,SE,146,2.0,6.0,22,0.00,,,0.00,,2013-07-13 21:32:00,
2013-07-13 15:42:00,99.0,55.0,29.66,SW,226,0.0,3.0,23,0.00,,,0.00,,2013-07-13 21:42:00,
2013-07-13 15:53:00,101.0,52.0,29.65,ENE,68,0.0,3.0,20,0.00,,,0.00,,2013-07-13 21:53:00,
2013-07-13 16:01:00,101.0,52.0,29.65,ENE,68,0.0,3.0,20,0.00,,,0.00,,2013-07-13 22:01:00,
2013-07-13 16:12:00,101.0,51.0,29.64,SW,225,0.0,4.0,19,0.00,,,0.00,,2013-07-13 22:12:00,
2013-07-13 16:22:00,100.0,50.0,29.63,ESE,102,1.0,4.0,19,0.00,,,0.00,,2013-07-13 22:22:00,
2013-07-13 16:32:00,100.0,50.0,29.63,ESE,102,1.0,4.0,19,0.00,,,0.00,,2013-07-13 22:32:00,
2013-07-13 16:43:00,100.0,53.0,29.62,SW,236,0.0,6.0,21,0.00,,,0.00,,2013-07-13 22:43:00,
2013-07-13 16:53:00,101.0,48.0,29.62,SSW,195,1.0,5.0,17,0.00,,,0.00,,2013-07-13 22:53:00,
2013-07-13 17:01:00,101.0,48.0,29.62,SSW,195,1.0,5.0,17,0.00,,,0.00,,2013-07-13 23:01:00,
2013-07-13 17:11:00,101.0,54.0,29.61,SE,136,3.0,5.0,21,0.00,,,0.00,,2013-07-13 23:11:00,
2013-07-13 17:22:00,100.0,53.0,29.61,West,281,1.0,6.0,21,0.00,,,0.00,,2013-07-13 23:22:00,
2013-07-13 17:32:00,100.0,53.0,29.61,West,281,1.0,6.0,21,0.00,,,0.00,,2013-07-13 23:32:00,
2013-07-13 17:42:00,99.0,52.0,29.61,East,98,1.0,6.0,21,0.00,,,0.00,,2013-07-13 23:42:00,
2013-07-13 17:53:00,99.0,56.0,29.60,SW,233,1.0,4.0,24,0.00,,,0.00,,2013-07-13 23:53:00,
2013-07-13 18:01:00,99.0,56.0,29.60,SW,233,1.0,4.0,24,0.00,,,0.00,,2013-07-14 00:01:00,
2013-07-13 18:11:00,98.0,54.0,29.59,SSW,196,2.0,4.0,23,0.00,,,0.00,,2013-07-14 00:11:00,
2013-07-13 18:21:00,97.0,53.0,29.59,SSW,203,1.0,4.0,23,0.00,,,0.00,,2013-07-14 00:21:00,
2013-07-13 18:33:00,97.0,53.0,29.59,SSW,203,1.0,4.0,23,0.00,,,0.00,,2013-07-14 00:33:00,
2013-07-13 18:42:00,96.0,53.0,29.59,SSW,207,0.0,5.0,24,0.00,,,0.00,,2013-07-14 00:42:00,
2013-07-13 18:53:00,94.0,54.0,29.59,SSW,207,0.0,5.0,26,0.00,,,0.00,,2013-07-14 00:53:00,
2013-07-13 19:02:00,94.0,54.0,29.59,SSW,207,0.0,5.0,26,0.00,,,0.00,,2013-07-14 01:02:00,
2013-07-13 19:11:00,94.0,54.0,29.59,SE,142,0.0,6.0,26,0.00,,,0.00,,2013-07-14 01:11:00,
2013-07-13 19:22:00,93.0,56.0,29.59,ESE,122,0.0,2.0,29,0.00,,,0.00,,2013-07-14 01:22:00,
2013-07-13 19:32:00,93.0,56.0,29.59,ESE,122,0.0,2.0,29,0.00,,,0.00,,2013-07-14 01:32:00,
2013-07-13 19:43:00,92.0,55.0,29.59,SSE,158,0.0,1.0,29,0.00,,,0.00,,2013-07-14 01:43:00,
2013-07-13 20:01:00,90.0,55.0,29.59,SSE,156,0.0,1.0,31,0.00,,,0.00,,2013-07-14 02:01:00,
2013-07-13 20:11:00,89.0,54.0,29.60,SSE,156,0.0,0.0,31,0.00,,,0.00,,2013-07-14 02:11:00,
2013-07-13 20:32:00,87.0,56.0,29.61,SSE,156,0.0,0.0,35,0.00,,,0.00,,2013-07-14 02:32:00,
2013-07-13 22:02:00,80.0,55.0,29.65,SSE,156,0.0,0.0,42,0.00,,,0.00,,2013-07-14 04:02:00,
2013-07-13 22:11:00,80.0,55.0,29.65,SSW,196,0.0,0.0,43,0.00,,,0.00,,2013-07-14 04:11:00,
2013-07-13 22:22:00,80.0,56.0,29.66,SSW,195,0.0,0.0,44,0.00,,,0.00,,2013-07-14 04:22:00,
2013-07-13 22:32:00,80.0,56.0,29.66,SSW,195,0.0,0.0,44,0.00,,,0.00,,2013-07-14 04:32:00,
2013-07-13 22:42:00,80.0,56.0,29.66,SSW,196,0.0,0.0,44,0.00,,,0.00,,2013-07-14 04:42:00,
2013-07-13 22:53:00,79.0,55.0,29.67,SSW,195,0.0,0.0,43,0.00,,,0.00,,2013-07-14 04:53:00,
2013-07-13 23:02:00,79.0,55.0,29.67,SSW,195,0.0,0.0,43,0.00,,,0.00,,2013-07-14 05:02:00,
2013-07-13 23:11:00,79.0,53.0,29.67,SSW,197,0.0,0.0,41,0.00,,,0.00,,2013-07-14 05:11:00,
2013-07-13 23:43:00,81.0,50.0,29.68,SSE,167,1.0,4.0,34,0.00,,,0.00,,2013-07-14 05:43:00,
2013-07-13 23:53:00,83.0,55.0,29.69,WSW,243,0.0,2.0,39,0.00,,,0.00,,2013-07-14 05:53:00,